Weather History for Szczecin, Poland

Change the Weather History Date:

Saturday, February 16, 2013

  Actual Average Record
Temperature  
Mean Temperature 34 °F -  
Max Temperature 36 °F 41 °F 50 °F (2014)
Min Temperature 32 °F 28 °F 19 °F (2011)
Degree Days  
Heating Degree Days 31    
Moisture  
Dew Point 32 °F    
Average Humidity 92    
Maximum Humidity 100    
Minimum Humidity 87    
Precipitation  
Precipitation 0.00 in - - ()
Sea Level Pressure  
Sea Level Pressure 30.24 in    
Wind  
Wind Speed 3 mph ()    
Max Wind Speed 5 mph    
Max Gust Speed -    
Visibility 2.2 miles    
Events Rain    
Averages and records for this station are not official NWS values.
T = Trace of Precipitation, MM = Missing Value Source: Averaged Metar Reports

Daily Weather History Graph

Daily Weather History Graph

Search for Another Location

Airport:

Trip Planner

Search our weather history database for the weather conditions in past years. The results will help you decide how hot, cold, wet, or windy it might be!

Date:

Astronomy

Feb. 16, 2013 Rise Set
Actual Time 7:16 AM CET 5:12 PM CET
Civil Twilight 6:40 AM CET 5:49 PM CET
Nautical Twilight 5:59 AM CET 6:29 PM CET
Astronomical Twilight 5:19 AM CET 7:10 PM CET
Moon 9:17 AM CET (2/16) No Moon Set
Length of Visible Light 11h 08m
Length of Day
9h 55m
Waxing Crescent, 37% of the Moon is Illuminated
Feb 16
Waxing Crescent
Feb 17
First Quarter
Feb 25
Full
Mar 4
Last Quarter
Mar 11
New

Hourly Weather History & Observations

Time (CET) Temp. Windchill Dew Point Humidity Pressure Visibility Wind Dir Wind Speed Gust Speed Precip Events Conditions
12:00 AM 33.8 °F 29.6 °F 30.2 °F 87% 30.18 in 1.9 mi East 4.6 mph - N/A   Mostly Cloudy
12:30 AM 33.8 °F 29.6 °F 30.2 °F 87% 30.18 in 1.9 mi East 4.6 mph - N/A   Mostly Cloudy
1:00 AM 34 °F - 33 °F 92% 30.21 in 2 mi ENE 2.2 mph - -   Mist
1:00 AM 33.8 °F 29.6 °F 30.2 °F 87% 30.18 in 1.9 mi East 4.6 mph - N/A   Mostly Cloudy
1:30 AM 33.8 °F 30.8 °F 30.2 °F 87% 30.18 in 1.9 mi East 3.5 mph - N/A   Mostly Cloudy
2:00 AM 33.8 °F 29.6 °F 30.2 °F 87% 30.18 in 1.9 mi East 4.6 mph - N/A   Mostly Cloudy
2:30 AM 33.8 °F 29.6 °F 30.2 °F 87% 30.18 in 1.9 mi East 4.6 mph - N/A   Mostly Cloudy
3:00 AM 33.8 °F 30.8 °F 32.0 °F 93% 30.18 in 1.9 mi East 3.5 mph - N/A   Mostly Cloudy
3:30 AM 32.0 °F 28.7 °F 32.0 °F 100% 30.18 in 1.9 mi East 3.5 mph - N/A   Mostly Cloudy
4:00 AM 33 °F - 32 °F 96% 30.21 in 1 mi ENE 2.2 mph - -   Mist
4:00 AM 32.0 °F 28.7 °F 30.2 °F 93% 30.18 in 1.6 mi ENE 3.5 mph - N/A   Mostly Cloudy
4:30 AM 32.0 °F - 30.2 °F 93% 30.18 in 1.6 mi Calm Calm - N/A   Mostly Cloudy
5:00 AM 32.0 °F 28.7 °F 32.0 °F 100% 30.18 in 1.6 mi NE 3.5 mph - N/A   Mostly Cloudy
5:30 AM 32.0 °F 28.7 °F 32.0 °F 100% 30.18 in 1.6 mi East 3.5 mph - N/A   Mostly Cloudy
6:00 AM 32.0 °F 28.7 °F 32.0 °F 100% 30.18 in 1.6 mi East 3.5 mph - N/A   Mostly Cloudy
6:30 AM 32.0 °F 27.5 °F 32.0 °F 100% 30.18 in 1.6 mi East 4.6 mph - N/A   Mostly Cloudy
7:00 AM 33 °F - 33 °F 97% 30.22 in 1 mi East 4.5 mph - -   Mist
7:00 AM 32.0 °F 28.7 °F 30.2 °F 93% 30.21 in 1.6 mi East 3.5 mph - N/A   Mostly Cloudy
7:30 AM 32.0 °F 28.7 °F 32.0 °F 100% 30.21 in 1.2 mi ENE 3.5 mph - N/A   Mostly Cloudy
8:00 AM 32.0 °F - 30.2 °F 93% 30.21 in 1.2 mi ENE 2.3 mph - N/A   Mostly Cloudy
8:30 AM 32.0 °F - 32.0 °F 100% 30.24 in 1.2 mi East 2.3 mph - N/A   Mostly Cloudy
9:00 AM 32.0 °F - 32.0 °F 100% 30.24 in 1.2 mi ENE 2.3 mph - N/A   Mostly Cloudy
9:30 AM 33.8 °F - 32.0 °F 93% 30.24 in 1.2 mi East 2.3 mph - N/A   Mostly Cloudy
10:00 AM 33 °F - 33 °F 100% 30.26 in 1 mi NE 2.2 mph - - Rain Light Drizzle
10:00 AM 33.8 °F 30.8 °F 32.0 °F 93% 30.24 in 1.2 mi East 3.5 mph - N/A Rain Light Rain
10:30 AM 33.8 °F - 32.0 °F 93% 30.24 in 1.2 mi ENE 2.3 mph - N/A Rain Light Rain
11:00 AM 33.8 °F 30.8 °F 32.0 °F 93% 30.27 in 1.2 mi East 3.5 mph - N/A Rain Light Rain
11:30 AM 33.8 °F 30.8 °F 32.0 °F 93% 30.27 in 1.9 mi East 3.5 mph - N/A   Mostly Cloudy
12:00 PM 33.8 °F 30.8 °F 32.0 °F 93% 30.24 in 2.5 mi ESE 3.5 mph - N/A   Mostly Cloudy
12:30 PM 35.6 °F - 32.0 °F 87% 30.24 in 2.5 mi ESE 2.3 mph - N/A   Mostly Cloudy
1:00 PM 36 °F - 35 °F 95% 30.26 in 2 mi East 4.5 mph - -   Mist
1:00 PM 35.6 °F - 32.0 °F 87% 30.24 in 3.1 mi Calm Calm - N/A   Mostly Cloudy
1:30 PM 35.6 °F - 32.0 °F 87% 30.24 in 3.7 mi Calm Calm - N/A   Mostly Cloudy
2:00 PM 35.6 °F - 32.0 °F 87% 30.24 in 3.7 mi Calm Calm - N/A   Mostly Cloudy
2:30 PM 35.6 °F 32.8 °F 32.0 °F 87% 30.24 in 3.7 mi NE 3.5 mph - N/A   Mostly Cloudy
3:00 PM 35.6 °F 32.8 °F 32.0 °F 87% 30.24 in 3.7 mi East 3.5 mph - N/A   Mostly Cloudy
3:30 PM 35.6 °F 31.7 °F 32.0 °F 87% 30.24 in 3.7 mi East 4.6 mph - N/A   Mostly Cloudy
4:00 PM 35 °F - 34 °F 92% 30.27 in 4 mi NNE 2.2 mph - -   Mist
4:00 PM 35.6 °F 32.8 °F 32.0 °F 87% 30.24 in 3.7 mi ENE 3.5 mph - N/A   Mostly Cloudy
4:30 PM 35.6 °F 32.8 °F 32.0 °F 87% 30.27 in 3.7 mi ENE 3.5 mph - N/A   Mostly Cloudy
5:00 PM 35.6 °F 32.8 °F 32.0 °F 87% 30.27 in 3.7 mi East 3.5 mph - N/A   Mostly Cloudy
5:30 PM 33.8 °F - 32.0 °F 93% 30.27 in 4.3 mi East 2.3 mph - N/A   Mostly Cloudy
6:00 PM 33.8 °F - 32.0 °F 93% 30.27 in 4.3 mi East 2.3 mph - N/A   Mostly Cloudy
6:30 PM 33.8 °F 30.8 °F 30.2 °F 87% 30.27 in 4.3 mi East 3.5 mph - N/A   Mostly Cloudy
7:00 PM 35 °F - 33 °F 91% 30.30 in 2 mi ENE 4.5 mph - -   Mist
7:00 PM 33.8 °F 29.6 °F 32.0 °F 93% 30.27 in 3.1 mi East 4.6 mph - N/A   Mostly Cloudy
7:30 PM 33.8 °F - 32.0 °F 93% 30.30 in 1.9 mi East 2.3 mph - N/A   Mostly Cloudy
8:00 PM 33.8 °F - 32.0 °F 93% 30.30 in 1.6 mi ENE 2.3 mph - N/A   Mostly Cloudy
8:30 PM 33.8 °F - 32.0 °F 93% 30.30 in 1.6 mi ENE 2.3 mph - N/A   Mostly Cloudy
9:00 PM 33.8 °F - 32.0 °F 93% 30.30 in 1.6 mi NE 2.3 mph - N/A   Mostly Cloudy
9:30 PM 33.8 °F - 32.0 °F 93% 30.30 in 1.6 mi ENE 2.3 mph - N/A   Mostly Cloudy
10:00 PM 34 °F - 33 °F 94% 30.31 in 2 mi NNE 2.2 mph - -   Mist
10:00 PM 33.8 °F - 32.0 °F 93% 30.30 in 1.9 mi NE 2.3 mph - N/A   Mostly Cloudy
10:30 PM 33.8 °F 30.8 °F 32.0 °F 93% 30.30 in 1.9 mi NE 3.5 mph - N/A   Mostly Cloudy
11:00 PM 33.8 °F 30.8 °F 32.0 °F 93% 30.30 in 1.9 mi NE 3.5 mph - N/A   Mostly Cloudy
11:30 PM 33.8 °F 30.8 °F 32.0 °F 93% 30.30 in 1.9 mi NE 3.5 mph - N/A   Mostly Cloudy